Orbital Elements at Epoch 2459200.5 (2020-Dec-17.0) TDB
Reference: JPL 15 (heliocentric ecliptic J2000)
Element | Value | Uncertainty (1-sigma) | Units |
e | .1341771093694308 | 5.7665e-08 | |
a | 2.607815218529939 | 1.2878e-08 | au |
q | 2.257906110737982 | 1.4614e-07 | au |
i | 13.34864674105015 | 1.0073e-05 | deg |
node | 36.85019000115232 | 1.701e-05 | deg |
peri | 124.6106219232548 | 4.4529e-05 | deg |
M | 97.60474987942567 | 3.7958e-05 | deg |
tp | 2458783.455784201270 (2019-Oct-26.95578420) | 0.00016154 | TDB |
period | 1538.202985746192 4.21 | 1.1394e-05 3.12e-08 | d yr |
n | .2340393324781916 | 1.7335e-09 | deg/d |
Q | 2.957724326321897 | 1.4605e-08 | au |
|
| | Orbit Determination Parameters
Additional Information
|